{"data":{"norad_id":56796,"intl_designator":"2023-078AF","name":"STARLINK-6049","alt_names":[],"object_type":"PAYLOAD","status":"ACTIVE","operator":null,"country":"US","launch_date":"2023-05-31","launch_site_code":"AFWTR","launch_vehicle":null,"mission":null,"orbit_class":"UNKNOWN","rcs_meters":null,"size_class":null,"mass_kg":null,"dimensions":null,"purposes":["comms"],"wikipedia_slug":null,"has_3d_model":false,"image_url":null,"decayed_at":null,"tle_current":{"epoch":"2026-09-20T08:01:38.693568Z","epoch_age_seconds":131925,"freshness":"FRESH","line1":"1 56796U 23078AF  26263.33447562 -.00001385  00000+0 -10828-3 0  9996","line2":"2 56796  69.9998 213.7849 0003556 266.4575  93.6177 14.98327281181832","mean_motion":14.98327281,"eccentricity":0.0003556,"inclination_deg":69.9998,"raan_deg":213.7849,"arg_perigee_deg":266.4575,"mean_anomaly_deg":93.6177,"bstar":-0.00010828,"rev_number":18183,"period_min":96.107173530133,"perigee_km":569.59280765833,"apogee_km":574.53579082235,"semimajor_km":6950.2012992403,"source":"CELESTRAK","updated_at":"2026-09-21T09:00:33.509304Z"}}}